Weather History for Ravenna, OH

Change the Weather History Date:

Thursday, March 21, 2013

  Actual Average (KCAK) Record (KCAK)
Temperature  
Mean Temperature 21 °F 39 °F  
Max Temperature 27 °F 49 °F 80 °F (2012)
Min Temperature 15 °F 30 °F 8 °F (1986)
Degree Days  
Heating Degree Days 44 26  
Month to date heating degree days 615  
Since 1 July heating degree days 5159  
Cooling Degree Days 0 0  
Month to date cooling degree days 0  
Year to date cooling degree days 0  
Moisture  
Dew Point 15 °F    
Average Humidity 76    
Maximum Humidity 96    
Minimum Humidity 62    
Precipitation  
Precipitation 0.00 in 0.10 in 1.15 in (1955)
Month to date precipitation 1.92  
Year to date precipitation 6.84  
Snow  
Snow 0.00 in 0.30 in - ()
Month to date snowfall 6.3  
Since 1 July snowfall 42.8  
Snow Depth -    
Sea Level Pressure  
Sea Level Pressure 29.84 in    
Wind  
Wind Speed 10 mph (WSW)    
Max Wind Speed 16 mph    
Max Gust Speed 22 mph    
Visibility 8 miles    
Events Snow    
T = Trace of Precipitation, MM = Missing Value Source: NWS Daily Summary

Daily Weather History Graph

Daily Weather History Graph

Search for Another Location

Airport:

Trip Planner

Search our weather history database for the weather conditions in past years. The results will help you decide how hot, cold, wet, or windy it might be!

Date:

Astronomy

Mar. 21, 2013 Rise Set
Actual Time 7:26 AM EDT 7:38 PM EDT
Civil Twilight 6:58 AM EDT 8:06 PM EDT
Nautical Twilight 6:26 AM EDT 8:38 PM EDT
Astronomical Twilight 5:53 AM EDT 9:11 PM EDT
Moon 2:04 PM EDT (3/21) 3:50 AM EDT (3/21)
Length of Visible Light 13h 07m
Length of Day
12h 12m
Waxing Gibbous, 68% of the Moon is Illuminated
Mar 21
Waxing Gibbous
Mar 27
Full
Apr 3
Last Quarter
Apr 10
New
Apr 18
First Quarter

Hourly Weather History & Observations

Time (EDT) Temp. Windchill Dew Point Humidity Pressure Visibility Wind Dir Wind Speed Gust Speed Precip Events Conditions
12:16 AM 21.4 °F 9.7 °F 14.5 °F 75% 29.87 in 10.0 mi West 11.5 mph - N/A   Mostly Cloudy
12:36 AM 20.8 °F 10.4 °F 12.0 °F 69% 29.87 in 10.0 mi West 9.2 mph - N/A   Scattered Clouds
12:56 AM 20.3 °F 9.8 °F 10.4 °F 66% 29.87 in 10.0 mi West 9.2 mph - N/A   Clear
1:16 AM 19.4 °F 10.4 °F 9.9 °F 66% 29.86 in 10.0 mi West 6.9 mph - N/A   Clear
1:36 AM 19.4 °F 9.5 °F 9.9 °F 66% 29.86 in 10.0 mi WSW 8.1 mph - N/A   Clear
2:16 AM 18.5 °F 8.4 °F 9.3 °F 67% 29.86 in 10.0 mi WSW 8.1 mph - N/A   Clear
2:36 AM 18.1 °F 7.9 °F 8.6 °F 66% 29.86 in 10.0 mi WSW 8.1 mph - N/A   Clear
2:56 AM 17.8 °F 8.5 °F 8.6 °F 67% 29.85 in 10.0 mi West 6.9 mph - N/A   Clear
3:16 AM 17.2 °F 7.8 °F 9.3 °F 71% 29.85 in 10.0 mi West 6.9 mph - N/A   Clear
3:36 AM 17.2 °F 6.8 °F 9.5 °F 72% 29.84 in 10.0 mi West 8.1 mph - N/A   Clear
3:56 AM 17.1 °F 8.7 °F 10.8 °F 76% 29.84 in 5.0 mi WSW 5.8 mph - N/A Snow Light Snow
4:16 AM 16.7 °F 6.2 °F 10.4 °F 76% 29.84 in 10.0 mi WSW 8.1 mph - N/A   Mostly Cloudy
4:36 AM 16.7 °F 5.3 °F 10.4 °F 76% 29.83 in 10.0 mi WSW 9.2 mph - N/A   Mostly Cloudy
4:56 AM 17.1 °F 5.0 °F 11.1 °F 77% 29.83 in 10.0 mi West 10.4 mph - N/A   Overcast
5:16 AM 17.2 °F 6.8 °F 11.5 °F 78% 29.83 in 10.0 mi WSW 8.1 mph - N/A   Overcast
5:36 AM 17.2 °F 6.0 °F 10.6 °F 75% 29.83 in 10.0 mi WSW 9.2 mph - N/A   Overcast
5:56 AM 16.9 °F 5.5 °F 9.5 °F 73% 29.83 in 10.0 mi West 9.2 mph - N/A   Overcast
6:16 AM 16.3 °F 4.1 °F 9.3 °F 74% 29.83 in 10.0 mi West 10.4 mph - N/A   Mostly Cloudy
6:36 AM 15.8 °F 5.1 °F 9.3 °F 76% 29.83 in 10.0 mi West 8.1 mph - N/A   Mostly Cloudy
6:56 AM 16.0 °F 5.3 °F 9.9 °F 77% 29.83 in 10.0 mi WSW 8.1 mph - N/A   Overcast
7:16 AM 15.4 °F 3.8 °F 9.5 °F 77% 29.83 in 10.0 mi WSW 9.2 mph - N/A   Overcast
7:36 AM 15.6 °F 5.9 °F 10.0 °F 79% 29.83 in 10.0 mi WSW 6.9 mph - N/A   Overcast
7:56 AM 15.6 °F 4.9 °F 10.2 °F 79% 29.83 in 10.0 mi WSW 8.1 mph - N/A   Overcast
8:16 AM 15.8 °F 5.1 °F 10.8 °F 80% 29.83 in 10.0 mi West 8.1 mph - N/A   Overcast
8:36 AM 16.3 °F 6.7 °F 10.9 °F 79% 29.83 in 7.0 mi West 6.9 mph - N/A Snow Light Snow
8:57 AM 16.7 °F 5.3 °F 11.3 °F 79% 29.83 in 7.0 mi WSW 9.2 mph - N/A Snow Light Snow
9:16 AM 16.7 °F 5.3 °F 11.8 °F 81% 29.83 in 2.5 mi WSW 9.2 mph - N/A Snow Light Snow
9:36 AM 17.6 °F 7.3 °F 12.0 °F 79% 29.83 in 4.0 mi WSW 8.1 mph - N/A Snow Light Snow
9:56 AM 19.2 °F 7.7 °F 12.4 °F 75% 29.83 in 10.0 mi WSW 10.4 mph - N/A   Mostly Cloudy
10:16 AM 18.7 °F 7.0 °F 11.8 °F 75% 29.84 in 10.0 mi West 10.4 mph 16.1 mph N/A   Overcast
10:36 AM 19.6 °F 6.8 °F 11.8 °F 72% 29.84 in 10.0 mi WSW 12.7 mph 16.1 mph N/A   Overcast
10:56 AM 20.3 °F 9.8 °F 11.1 °F 68% 29.84 in 10.0 mi West 9.2 mph - N/A   Overcast
11:16 AM 20.8 °F 9.7 °F 10.8 °F 65% 29.84 in 10.0 mi WSW 10.4 mph 16.1 mph N/A   Overcast
11:36 AM 21.6 °F 9.3 °F 10.8 °F 63% 29.84 in 10.0 mi WSW 12.7 mph 18.4 mph N/A   Overcast
11:56 AM 22.5 °F 11.7 °F 11.7 °F 63% 29.84 in 10.0 mi WSW 10.4 mph - N/A   Overcast
12:16 PM 23.4 °F 12.8 °F 12.6 °F 63% 29.84 in 10.0 mi West 10.4 mph - N/A   Overcast
12:36 PM 24.1 °F 12.5 °F 13.5 °F 64% 29.84 in 10.0 mi WSW 12.7 mph 18.4 mph N/A   Overcast
12:56 PM 23.9 °F 11.7 °F 13.8 °F 65% 29.83 in 10.0 mi WSW 13.8 mph - N/A   Overcast
1:16 PM 24.8 °F 12.9 °F 13.5 °F 62% 29.83 in 10.0 mi WSW 13.8 mph 21.9 mph N/A   Overcast
1:36 PM 23.9 °F 11.7 °F 13.6 °F 65% 29.84 in 10.0 mi West 13.8 mph 19.6 mph N/A Snow Light Snow
1:56 PM 24.4 °F 11.5 °F 14.9 °F 67% 29.84 in 10.0 mi West 16.1 mph - N/A Snow Light Snow
2:16 PM 25.0 °F 14.8 °F 15.1 °F 66% 29.83 in 10.0 mi West 10.4 mph 18.4 mph N/A   Overcast
2:36 PM 25.9 °F 16.0 °F 16.2 °F 67% 29.83 in 10.0 mi West 10.4 mph - N/A   Overcast
2:56 PM 26.2 °F 15.2 °F 16.2 °F 66% 29.83 in 10.0 mi West 12.7 mph 19.6 mph N/A Snow Light Snow
3:16 PM 26.2 °F 14.7 °F 16.5 °F 67% 29.83 in 10.0 mi West 13.8 mph 18.4 mph N/A Snow Light Snow
3:36 PM 26.2 °F 14.7 °F 18.0 °F 71% 29.83 in 7.0 mi West 13.8 mph 17.3 mph N/A Snow Light Snow
3:56 PM 26.6 °F 16.2 °F 19.2 °F 74% 29.83 in 5.0 mi WSW 11.5 mph 17.3 mph N/A Snow Light Snow
4:16 PM 26.6 °F 15.2 °F 19.4 °F 74% 29.83 in 4.0 mi West 13.8 mph - N/A Snow Light Snow
4:36 PM 26.6 °F 16.8 °F 19.8 °F 75% 29.83 in 7.0 mi West 10.4 mph - N/A Snow Light Snow
4:57 PM 26.6 °F 16.2 °F 19.6 °F 75% 29.83 in 10.0 mi West 11.5 mph - N/A Snow Light Snow
5:16 PM 26.6 °F 16.2 °F 19.6 °F 75% 29.83 in 10.0 mi West 11.5 mph - N/A Snow Light Snow
5:36 PM 27.3 °F 16.1 °F 20.7 °F 76% 29.83 in 2.5 mi West 13.8 mph 18.4 mph N/A Snow Light Snow
5:56 PM 27.5 °F 18.6 °F 21.4 °F 78% 29.83 in 5.0 mi West 9.2 mph - N/A Snow Light Snow
6:16 PM 27.3 °F 16.6 °F 21.7 °F 80% 29.83 in 3.0 mi West 12.7 mph 19.6 mph N/A Snow Light Snow
6:36 PM 27.1 °F 18.2 °F 22.6 °F 83% 29.84 in 1.5 mi WNW 9.2 mph - N/A Snow Light Snow
6:56 PM 26.6 °F 17.5 °F 23.5 °F 88% 29.84 in 1.8 mi West 9.2 mph 16.1 mph N/A Snow Light Snow
7:16 PM 26.6 °F 16.2 °F 23.0 °F 86% 29.85 in 7.0 mi West 11.5 mph 16.1 mph N/A Snow Light Snow
7:36 PM 26.8 °F 17.1 °F 23.0 °F 86% 29.85 in 10.0 mi West 10.4 mph 16.1 mph N/A Snow Light Snow
7:56 PM 26.6 °F 17.5 °F 23.0 °F 86% 29.85 in 5.0 mi West 9.2 mph 18.4 mph N/A Snow Light Snow
8:16 PM 26.6 °F 18.2 °F 23.0 °F 86% 29.85 in 10.0 mi West 8.1 mph - N/A Snow Light Snow
8:36 PM 26.4 °F 16.6 °F 23.5 °F 89% 29.85 in 1.8 mi WSW 10.4 mph 16.1 mph N/A Snow Light Snow
8:56 PM 26.2 °F 17.1 °F 23.2 °F 88% 29.85 in 5.0 mi West 9.2 mph - N/A Snow Light Snow
9:16 PM 26.2 °F 16.4 °F 23.0 °F 88% 29.85 in 4.0 mi WSW 10.4 mph - N/A Snow Light Snow
9:36 PM 26.1 °F 16.2 °F 22.8 °F 88% 29.86 in 2.5 mi West 10.4 mph - N/A Snow Light Snow
9:56 PM 25.7 °F 14.6 °F 22.1 °F 86% 29.86 in 7.0 mi West 12.7 mph - N/A Snow Light Snow
10:16 PM 25.7 °F 15.1 °F 22.6 °F 88% 29.86 in 4.0 mi WSW 11.5 mph 16.1 mph N/A Snow Light Snow
10:36 PM 25.7 °F 15.7 °F 23.0 °F 89% 29.86 in 7.0 mi WSW 10.4 mph - N/A Snow Light Snow
10:56 PM 25.7 °F 17.1 °F 23.0 °F 89% 29.86 in 10.0 mi WSW 8.1 mph - N/A   Overcast
11:16 PM 26.1 °F 15.6 °F 23.9 °F 92% 29.86 in 4.0 mi West 11.5 mph - N/A Snow Light Snow
11:36 PM 26.2 °F 17.1 °F 24.8 °F 94% 29.87 in 3.0 mi West 9.2 mph 16.1 mph N/A Snow Light Snow
11:56 PM 26.2 °F 17.1 °F 25.3 °F 96% 29.86 in 1.8 mi WSW 9.2 mph 16.1 mph N/A Snow Light Snow